Airfield :
LOGIN :

Register | Disclaimer

   EN    FR    IT 

 










Legend :    VFR   Marginal VFR   IFR   Intensive IFR   Very Intensive IFR
Visi :
Ceiling :
>= 8 km
>= 3000ft
5 to 8 km
1000 to 3000 ft
1500m to 5 km
500 to 1000 ft
800 to 1500m
200 to 500 ft
< 800m
< 200 ft
Symbols :   Thunderstorms  Fog  Heavy snow  Heavy precipitations  Wind > 20 kt
SIGMETs :     Misc.  Thunderstorms  Icing  Turbulence  Mountain Waves  Volcanic Ashes







- Airport Elevation : 628 ft
- IATA code : CMR
- Download approach charts


LFGA - Colmar-Houssen

CURRENT METAR :
  • 101800Z AUTO 26004KT 200V300 9999 BKN040 OVC046 07/01 Q1024

EXPIRED METARs :
  • 101730Z AUTO VRB03KT 9999 FEW041 BKN047 BKN060 07/00 Q1024
  • 101700Z AUTO 26003KT 170V330 9999 FEW037 BKN046 OVC060 07/01 Q1024
  • 101630Z AUTO 26007KT 230V310 9999 SCT042 BKN048 BKN060 07/01 Q1024
  • 101600Z AUTO 23006KT 190V260 9999 FEW040 07/02 Q1024
  • 101530Z AUTO 28005KT 250V310 9999 FEW026 SCT040 BKN052 07/02 Q1024
  • 101500Z AUTO 27009KT 9999 FEW029 SCT040 07/02 Q1024

TAF N/A
No reported NOTAMs for that airfield.



MET'MAP, your aeronautical weather chart ! - Copyright ORBIFLY December 2007 - Disclaimer

ORBIFLY MET'MAP TEAM :

Programming & Development : Alexandra Zaïnal
Concept & Development : Baudouin d'Aumeries
Co-Development & Prog : Marc-Olivier Méhu
Technical & hardware support : Manuel Goepfert

Contact : metmap@orbifly.com




SOURCES & CREDITS :

   NOAA